Santiago de Cuba, Cuba

1:10 AM CDT on August 22, 2017 (GMT -0400)
Antonio Maceo International

Weather History for MUCU - April, 2017

Change the Weather History Date:

Friday, April 21, 2017

  Actual Average Record
Temperature  
Mean Temperature 76 °F -  
Max Temperature 81 °F 83 °F 87 °F (2014)
Min Temperature 71 °F 71 °F 68 °F (1999)
Cooling Degree Days 11    
Growing Degree Days 26 (Base 50)    
Moisture  
Dew Point 68 °F    
Average Humidity 79    
Maximum Humidity 100    
Minimum Humidity 58    
Precipitation  
Precipitation 0.00 in - - ()
Sea Level Pressure  
Sea Level Pressure 29.93 in    
Wind  
Wind Speed 7 mph ()    
Max Wind Speed 16 mph    
Max Gust Speed -    
Visibility 5.1 miles    
Events Rain    
Averages and records for this station are not official NWS values.
T = Trace of Precipitation, MM = Missing Value Source: Averaged Metar Reports

Daily Weather History Graph

Daily Weather History Graph

Search for Another Location

Airport or City:

Trip Planner

Search our weather history database for the weather conditions in past years. The results will help you decide how hot, cold, wet, or windy it might be!

Date:

Astronomy

Apr. 21, 2017 Rise Set
Actual Time 6:40 AM CDT 7:23 PM CDT
Civil Twilight 6:18 AM CDT 7:46 PM CDT
Nautical Twilight 5:51 AM CDT 8:12 PM CDT
Astronomical Twilight 5:24 AM CDT 8:40 PM CDT
Moon 3:06 AM CDT (4/21) 2:52 PM CDT (4/21)
Length of Visible Light 13h 28m
Length of Day
12h 42m
Waning Crescent, 28% of the Moon is Illuminated
Apr 21
Waning Crescent
Apr 26
New
May 2
First Quarter
May 10
Full
May 18
Last Quarter

Hourly Weather History & Observations

Time (CDT) Temp. Heat Index Dew Point Humidity Pressure Visibility Wind Dir Wind Speed Gust Speed Precip Events Conditions
12:50 AM 69.8 °F - 66.2 °F 88% 29.95 in 5.0 mi North 6.9 mph - N/A   Scattered Clouds
1:50 AM 69.8 °F - 64.4 °F 83% 29.95 in 5.0 mi North 6.9 mph - N/A   Scattered Clouds
2:00 AM 70 °F - 64 °F 77% 29.96 in 5 mi North 6.7 mph - -   Haze
2:50 AM 69.8 °F - 64.4 °F 83% 29.92 in 5.0 mi North 5.8 mph - N/A   Partly Cloudy
3:50 AM 69.8 °F - 64.4 °F 83% 29.92 in 5.0 mi North 5.8 mph - N/A   Partly Cloudy
4:50 AM 69.8 °F - 64.4 °F 83% 29.92 in 5.0 mi North 5.8 mph - N/A   Partly Cloudy
5:00 AM 70 °F - 64 °F 77% 29.93 in 5 mi North 6.7 mph - -   Haze
5:50 AM 71.6 °F - 64.4 °F 78% 29.92 in 5.0 mi North 5.8 mph - N/A   Partly Cloudy
6:51 AM 71.6 °F - 64.4 °F 78% 29.95 in 5.6 mi North 5.8 mph - N/A   Scattered Clouds
7:51 AM 73.4 °F - 66.2 °F 78% 29.95 in 5.6 mi North 4.6 mph - N/A   Scattered Clouds
8:00 AM 72 °F - 66 °F 75% 29.97 in 6 mi North 4.5 mph - -   Haze
8:50 AM 77.0 °F - 66.2 °F 69% 29.95 in 5.6 mi NNW 5.8 mph - N/A   Scattered Clouds
9:50 AM 78.8 °F - 66.2 °F 65% 29.98 in 5.6 mi NNW 4.6 mph - N/A   Scattered Clouds
10:50 AM 80.6 °F 82.3 °F 64.4 °F 58% 29.98 in 5.6 mi Variable 2.3 mph - N/A   Scattered Clouds
11:50 AM 78.8 °F - 64.4 °F 61% 29.98 in 5.6 mi South 3.5 mph - N/A   Overcast
12:50 PM 78.8 °F - 69.8 °F 74% 29.95 in 5.6 mi ESE 13.8 mph - N/A   Overcast
1:51 PM 80.6 °F 83.9 °F 69.8 °F 70% 29.92 in 5.6 mi SE 15.0 mph - N/A   Mostly Cloudy
2:00 PM 81 °F - 70 °F 62% 29.94 in 6 mi SE 15.7 mph - -   Haze
2:51 PM 78.8 °F - 69.8 °F 74% 29.89 in 5.6 mi SE 13.8 mph - N/A   Mostly Cloudy
3:51 PM 78.8 °F - 69.8 °F 74% 29.89 in 5.6 mi SE 12.7 mph - N/A   Overcast
4:51 PM 78.8 °F - 69.8 °F 74% 29.89 in 5.6 mi SE 12.7 mph - N/A   Overcast
5:00 PM 79 °F - 69 °F 64% 29.89 in 6 mi SE 13.4 mph - -   Haze
5:50 PM 78.8 °F - 69.8 °F 74% 29.89 in 5.6 mi ESE 15.0 mph - N/A   Overcast
6:50 PM 77.0 °F - 69.8 °F 78% 29.89 in 5.6 mi ESE 12.7 mph - N/A   Overcast
7:29 PM 77.0 °F - 69.8 °F 78% 29.92 in 3.1 mi East 8.1 mph - N/A Rain Rain
7:52 PM 75.2 °F - 73.4 °F 94% 29.92 in 3.1 mi East 8.1 mph - N/A Rain Rain
8:00 PM 74 °F - 72 °F 92% 29.93 in - East 8.9 mph - - Rain Heavy Rain
8:22 PM 75.2 °F - 73.4 °F 94% 2.98 in 4.3 mi East 5.8 mph - N/A Rain Light Rain
8:51 PM 73.4 °F - 73.4 °F 100% 29.95 in 4.3 mi NNE 3.5 mph - N/A Rain Light Rain
9:51 PM 71.6 °F - 71.6 °F 100% 29.95 in 3.7 mi NNE 5.8 mph - N/A Rain Light Rain
10:52 PM 71.6 °F - 71.6 °F 100% 2.98 in 3.7 mi North 4.6 mph - N/A Rain Light Rain
11:51 PM 71.6 °F - 71.6 °F 100% 29.98 in 4.3 mi NNW 4.6 mph - N/A Rain Light Rain